When you browse on this site, cookies collect data to enhance your experience and personalize the content and advertising you see.
Visit our Privacy Policy to learn more. By continuing to use the site, you agree to this use of cookies and data.
  • Em Portugal
  • Lista de países
  • Para 7 dias
  • Temperatura da água
  • Mapas de satélite
  • Mapa do tempo
  • Widgets de tempo
  • user-avatar
    Iniciar Sessão

    Previsão horária em Taush

    Hoje, 18 Fevereiro, Segunda-feira

    Tempo Temperatura Precipitação Vento Pressão Humidade
    00:00 -6°C° 0.1 mm 5 m/s 728 mmHg 92%
    01:00 -6°C° 0.1 mm 5 m/s 727 mmHg 92%
    02:00 -6°C° 0.2 mm 5 m/s 727 mmHg 92%
    03:00 -6°C° 0.2 mm 5 m/s 727 mmHg 93%
    04:00 -5°C° 0 mm 4 m/s 726 mmHg 93%
    05:00 -5°C° 0.3 mm 4 m/s 726 mmHg 94%
    06:00 -5°C° 0.3 mm 4 m/s 726 mmHg 94%
    07:00 -5°C° 0.3 mm 3 m/s 726 mmHg 95%
    08:00 -5°C° 0.2 mm 3 m/s 726 mmHg 94%
    09:00 -5°C° 0.2 mm 3 m/s 726 mmHg 94%
    10:00 -5°C° 0.2 mm 3 m/s 726 mmHg 93%
    11:00 -4°C° 0.2 mm 3 m/s 726 mmHg 92%
    12:00 -3°C° 0.2 mm 2 m/s 726 mmHg 91%
    13:00 -2°C° 0.2 mm 2 m/s 726 mmHg 90%
    14:00 0°C° 0.2 mm 1 m/s 727 mmHg 90%
    15:00 0°C° 0.2 mm 1 m/s 727 mmHg 90%
    16:00 -1°C° 0.2 mm 0 m/s 727 mmHg 91%
    17:00 -1°C° 0.2 mm 1 m/s 728 mmHg 92%
    18:00 -1°C° 0.2 mm 1 m/s 729 mmHg 93%
    19:00 -4°C° 0.2 mm 2 m/s 729 mmHg 95%
    20:00 -4°C° 0.1 mm 2 m/s 730 mmHg 94%
    21:00 -5°C° 0.1 mm 3 m/s 730 mmHg 94%
    22:00 -6°C° 0.1 mm 3 m/s 731 mmHg 94%
    23:00 -8°C° 0.2 mm 5 m/s 731 mmHg 92%

    Amanhã, 19 Fevereiro, Terça-feira

    Tempo Temperatura Precipitação Vento Pressão Humidade
    00:00 -10°C° 0.2 mm 6 m/s 732 mmHg 89%
    01:00 -12°C° 0.2 mm 7 m/s 733 mmHg 86%
    02:00 -13°C° 0 mm 7 m/s 734 mmHg 86%
    03:00 -14°C° 0 mm 7 m/s 734 mmHg 86%
    04:00 -15°C° 0 mm 7 m/s 735 mmHg 86%
    05:00 -17°C° 0 mm 7 m/s 736 mmHg 85%
    06:00 -18°C° 0 mm 7 m/s 737 mmHg 85%
    07:00 -18°C° 0 mm 6 m/s 738 mmHg 85%
    08:00 -18°C° 0 mm 6 m/s 738 mmHg 85%
    09:00 -18°C° 0 mm 6 m/s 739 mmHg 85%
    10:00 -20°C° 0 mm 6 m/s 740 mmHg 85%
    11:00 -18°C° 0 mm 6 m/s 740 mmHg 85%
    12:00 -18°C° 0 mm 6 m/s 741 mmHg 86%
    13:00 -18°C° 0 mm 6 m/s 741 mmHg 86%
    14:00 -18°C° 0 mm 5 m/s 742 mmHg 86%
    15:00 -18°C° 0 mm 5 m/s 742 mmHg 87%
    16:00 -17°C° 0 mm 4 m/s 743 mmHg 87%
    17:00 -18°C° 0 mm 4 m/s 743 mmHg 89%
    18:00 -19°C° 0 mm 3 m/s 744 mmHg 91%
    19:00 -19°C° 0 mm 2 m/s 745 mmHg 93%
    20:00 -20°C° 0 mm 2 m/s 745 mmHg 93%
    21:00 -20°C° 0 mm 2 m/s 745 mmHg 93%
    22:00 -18°C° 0 mm 1 m/s 746 mmHg 93%
    23:00 -18°C° 0 mm 1 m/s 746 mmHg 93%

    Depois de amanhã, 20 Fevereiro, Quarta-feira

    Tempo Temperatura Precipitação Vento Pressão Humidade
    00:00 -18°C° 0 mm 1 m/s 746 mmHg 93%
    01:00 -18°C° 0 mm 1 m/s 746 mmHg 92%
    02:00 -19°C° 0 mm 1 m/s 746 mmHg 93%
    03:00 -20°C° 0 mm 1 m/s 746 mmHg 93%
    04:00 -21°C° 0 mm 1 m/s 746 mmHg 94%
    05:00 -21°C° 0 mm 1 m/s 746 mmHg 93%
    06:00 -21°C° 0 mm 1 m/s 746 mmHg 93%
    07:00 -24°C° 0 mm 2 m/s 746 mmHg 92%
    08:00 -21°C° 0 mm 2 m/s 747 mmHg 91%
    09:00 -22°C° 0 mm 3 m/s 747 mmHg 90%
    10:00 -21°C° 0 mm 3 m/s 747 mmHg 90%
    11:00 -19°C° 0 mm 4 m/s 747 mmHg 90%
    12:00 -18°C° 0 mm 4 m/s 746 mmHg 91%
    13:00 -17°C° 0 mm 4 m/s 746 mmHg 92%
    14:00 -17°C° 0 mm 5 m/s 746 mmHg 92%
    15:00 -17°C° 0 mm 5 m/s 746 mmHg 92%
    16:00 -15°C° 0 mm 5 m/s 745 mmHg 93%
    17:00 -17°C° 0.1 mm 5 m/s 745 mmHg 93%
    18:00 -17°C° 0.1 mm 6 m/s 745 mmHg 93%
    19:00 -17°C° 0.1 mm 6 m/s 744 mmHg 93%
    20:00 -16°C° 0.1 mm 6 m/s 744 mmHg 93%
    21:00 -15°C° 0.1 mm 6 m/s 743 mmHg 92%
    22:00 -14°C° 0.1 mm 7 m/s 743 mmHg 91%
    23:00 -14°C° 0.1 mm 7 m/s 743 mmHg 91%

    21 Fevereiro, Quinta-feira

    Tempo Temperatura Precipitação Vento Pressão Humidade
    00:00 -14°C° 0.1 mm 7 m/s 742 mmHg 91%
    01:00 -13°C° 0.1 mm 7 m/s 742 mmHg 91%
    02:00 -13°C° 0.1 mm 7 m/s 741 mmHg 91%
    03:00 -13°C° 0.1 mm 7 m/s 741 mmHg 92%
    04:00 -12°C° 0.1 mm 7 m/s 741 mmHg 92%
    05:00 -12°C° 0.3 mm 7 m/s 740 mmHg 93%
    06:00 -11°C° 0.3 mm 7 m/s 740 mmHg 93%
    07:00 -9°C° 0.3 mm 7 m/s 740 mmHg 93%
    08:00 -9°C° 0.2 mm 7 m/s 740 mmHg 93%
    09:00 -9°C° 0.2 mm 7 m/s 740 mmHg 93%
    10:00 -8°C° 0.2 mm 7 m/s 740 mmHg 92%
    11:00 -8°C° 0.2 mm 7 m/s 740 mmHg 92%
    12:00 -8°C° 0.2 mm 7 m/s 740 mmHg 92%
    13:00 -7°C° 0.2 mm 7 m/s 741 mmHg 92%
    14:00 -7°C° 0.2 mm 7 m/s 741 mmHg 92%
    15:00 -6°C° 0.2 mm 6 m/s 741 mmHg 92%
    16:00 -6°C° 0.2 mm 6 m/s 741 mmHg 91%
    17:00 -6°C° 0.3 mm 6 m/s 741 mmHg 92%
    18:00 -6°C° 0.3 mm 6 m/s 741 mmHg 92%
    19:00 -6°C° 0.3 mm 6 m/s 741 mmHg 92%
    20:00 -8°C° 0.3 mm 6 m/s 741 mmHg 92%
    21:00 -8°C° 0.3 mm 6 m/s 741 mmHg 92%
    22:00 -8°C° 0.3 mm 6 m/s 741 mmHg 93%
    23:00 -8°C° 0.3 mm 6 m/s 741 mmHg 93%

    22 Fevereiro, Sexta-feira

    Tempo Temperatura Precipitação Vento Pressão Humidade
    00:00 -7°C° 0.3 mm 5 m/s 741 mmHg 93%
    01:00 -7°C° 0.3 mm 5 m/s 741 mmHg 93%
    02:00 -6°C° 0.2 mm 5 m/s 740 mmHg 93%
    03:00 -6°C° 0.2 mm 5 m/s 740 mmHg 93%
    04:00 -5°C° 0.2 mm 5 m/s 740 mmHg 93%
    05:00 -5°C° 0.2 mm 5 m/s 740 mmHg 93%
    06:00 -5°C° 0.2 mm 6 m/s 739 mmHg 92%
    07:00 -5°C° 0.2 mm 6 m/s 739 mmHg 91%
    08:00 -4°C° 0.4 mm 6 m/s 739 mmHg 91%
    09:00 -4°C° 0.4 mm 6 m/s 739 mmHg 91%
    10:00 -4°C° 0.4 mm 7 m/s 739 mmHg 90%
    11:00 -4°C° 0.2 mm 7 m/s 738 mmHg 90%
    12:00 -4°C° 0.2 mm 7 m/s 738 mmHg 90%
    13:00 -3°C° 0.2 mm 7 m/s 738 mmHg 89%
    14:00 -4°C° 0.3 mm 6 m/s 738 mmHg 90%
    15:00 -4°C° 0.3 mm 6 m/s 738 mmHg 91%
    16:00 -4°C° 0.3 mm 5 m/s 737 mmHg 92%
    17:00 -4°C° 0.1 mm 5 m/s 738 mmHg 92%
    18:00 -4°C° 0.1 mm 4 m/s 738 mmHg 91%
    19:00 -4°C° 0.1 mm 4 m/s 738 mmHg 91%
    20:00 -5°C° 0 mm 4 m/s 738 mmHg 92%
    21:00 -5°C° 0 mm 4 m/s 738 mmHg 93%
    22:00 -5°C° 0 mm 4 m/s 739 mmHg 93%
    23:00 -7°C° 0 mm 4 m/s 739 mmHg 93%

    23 Fevereiro, Sábado

    Tempo Temperatura Precipitação Vento Pressão Humidade
    00:00 -9°C° 0 mm 4 m/s 739 mmHg 93%
    01:00 -10°C° 0 mm 4 m/s 740 mmHg 93%
    02:00 -9°C° 0 mm 3 m/s 740 mmHg 94%
    03:00 -8°C° 0 mm 2 m/s 741 mmHg 95%
    04:00 -8°C° 0 mm 2 m/s 741 mmHg 96%
    05:00 -9°C° 0 mm 2 m/s 742 mmHg 96%
    06:00 -10°C° 0 mm 3 m/s 743 mmHg 96%
    07:00 -10°C° 0 mm 3 m/s 743 mmHg 96%
    08:00 -12°C° 0 mm 3 m/s 744 mmHg 95%
    09:00 -14°C° 0 mm 4 m/s 745 mmHg 95%
    10:00 -15°C° 0 mm 4 m/s 746 mmHg 94%
    11:00 -15°C° 0.1 mm 4 m/s 747 mmHg 93%
    12:00 -14°C° 0.1 mm 4 m/s 747 mmHg 91%
    13:00 -13°C° 0.1 mm 3 m/s 748 mmHg 90%
    14:00 -13°C° 0.1 mm 3 m/s 749 mmHg 90%
    15:00 -13°C° 0.1 mm 3 m/s 749 mmHg 90%
    16:00 -13°C° 0.1 mm 3 m/s 749 mmHg 89%
    17:00 -14°C° 0.1 mm 3 m/s 750 mmHg 91%
    18:00 -14°C° 0.1 mm 3 m/s 750 mmHg 93%
    19:00 -14°C° 0.1 mm 2 m/s 751 mmHg 95%
    20:00 -15°C° 0 mm 2 m/s 751 mmHg 96%
    21:00 -15°C° 0 mm 2 m/s 751 mmHg 96%
    22:00 -16°C° 0 mm 2 m/s 752 mmHg 97%
    23:00 -17°C° 0 mm 2 m/s 752 mmHg 97%
    Mostrar mais